Temperature
15 15 16 16 13 11 13 14 14 14 15 15 16 16 15 15 15 16 15 16 16 15 15 15 15 15 15 15 15 15 15 15 15 15 15 15 15 15 15 15 15 15 15 15 15 15 15 15 15
15 15 16 15 11 12 13 13 14 14 15 15 15 15 15 15 15 15 15 15 15 15 15 15 15 15 15 15 15 15 15 15 15 15 15 15 15 14 15 14 14 15 15 15 15 15 15 14 14
14 15 15 10 11 12 14 14 13 14 15 15 14 14 14 14 15 15 15 15 15 15 15 15 15 15 15 15 15 15 15 15 15 15 15 15 14 14 14 14 14 14 14 14 14 14 14 14 14
14 15 13 10 12 11 13 13 13 13 14 14 14 13 14 14 14 15 14 14 14 14 14 14 15 15 15 15 15 15 15 15 15 15 15 14 14 14 14 14 14 14 14 14 14 14 14 14 14
14 14 10 10 11 12 12 12 13 12 12 13 13 12 13 14 14 14 14 14 14 14 14 14 14 15 15 15 15 15 15 15 15 15 14 14 14 14 14 14 14 14 14 14 14 14 14 14 14
13 10 10 10 11 11 12 13 13 12 12 13 13 12 13 14 14 14 14 14 14 14 14 14 14 14 15 15 15 15 15 15 15 15 15 14 14 14 14 14 14 14 14 14 14 14 13 13 13
11 8 10 10 10 11 12 13 13 12 12 13 13 12 12 13 13 13 13 13 13 13 14 14 14 14 14 14 14 15 15 14 14 14 14 14 14 14 14 14 14 14 14 14 13 13 13 13 13
12 8 10 9 10 11 12 13 13 13 13 13 13 12 12 13 13 13 13 13 13 13 13 14 14 14 14 14 14 14 14 14 14 14 14 14 14 14 14 14 14 14 13 13 13 13 13 13 13
11 8 9 10 10 11 12 12 13 13 13 13 13 13 13 13 13 13 13 13 13 13 13 13 13 14 14 14 14 14 14 14 14 14 14 14 14 14 14 14 13 13 13 13 13 13 13 13 12
10 8 10 10 11 11 11 11 12 12 11 12 12 13 13 13 13 13 13 13 13 13 13 13 13 13 13 13 13 14 14 14 14 14 13 13 14 13 13 13 13 13 13 13 13 13 12 12 12
9 8 10 10 11 11 11 11 12 11 10 12 13 13 13 12 12 12 13 13 13 13 13 13 13 13 13 13 13 13 13 13 13 13 13 13 13 13 13 13 13 13 13 13 12 12 12 12 12
9 9 10 11 11 11 11 11 11 11 12 13 13 13 13 12 12 12 13 13 13 13 13 13 13 12 12 13 13 13 13 13 13 13 13 13 13 13 13 13 13 13 12 12 12 12 12 12 11
9 9 10 11 11 11 11 10 11 11 13 13 13 13 13 13 12 12 12 12 12 12 12 12 12 12 12 12 12 12 13 13 13 13 13 13 13 13 12 12 12 12 12 12 12 12 11 11 11
9 9 9 10 10 10 10 10 10 11 12 12 12 13 13 12 12 12 12 12 12 12 12 12 12 12 12 12 12 12 12 12 12 12 12 12 12 12 12 12 12 12 12 12 11 11 11 11 11
9 8 9 9 10 10 10 10 9 12 12 12 12 12 12 12 12 12 12 12 12 12 12 12 12 12 12 12 12 12 12 12 12 12 12 12 12 12 12 12 12 11 11 11 11 11 11 11 10
8 8 8 9 9 10 10 9 10 11 11 11 11 11 11 11 12 12 12 12 12 12 12 12 11 11 12 11 11 11 11 11 11 12 11 11 11 11 11 11 11 11 11 11 11 11 10 10 10
7 7 7 8 9 9 9 9 9 11 10 10 10 11 11 11 12 12 11 11 11 11 11 11 11 11 11 11 11 11 11 11 11 11 11 11 11 11 11 11 11 11 11 10 10 10 10 10 10
7 7 7 8 8 8 8 8 9 10 9 10 10 10 11 11 12 12 11 11 11 11 11 11 11 11 11 11 11 11 11 11 11 11 11 11 11 11 11 10 10 10 10 10 10 10 10 10 9
7 7 7 8 8 8 8 8 8 9 9 9 10 10 10 11 11 11 11 11 11 11 10 11 11 11 11 11 11 11 11 10 10 10 10 10 10 10 10 10 10 10 10 10 10 9 9 9 9
7 7 7 7 8 8 7 8 8 8 8 9 10 10 10 11 11 11 11 11 11 11 11 11 10 10 10 11 11 11 10 10 10 10 10 10 10 10 10 10 9 9 9 9 9 9 9 9 9
7 7 7 7 7 8 8 8 9 9 9 9 10 10 10 11 11 11 11 11 11 11 11 11 10 10 10 10 10 10 10 10 10 10 10 10 9 9 9 9 9 9 9 9 9 9 8 9 8
7 8 8 7 7 6 7 7 8 8 8 8 9 10 10 11 11 11 11 11 11 11 11 10 10 10 10 10 10 10 10 10 10 10 9 9 9 9 9 9 9 8 8 8 8 8 8 8 8
7 7 7 7 7 7 6 7 7 7 8 8 8 9 10 11 11 11 11 11 11 11 10 10 10 10 10 10 10 10 10 9 9 9 9 9 9 8 8 8 8 8 8 8 8 8 8 8 8
7 7 7 6 6 7 7 6 7 7 8 8 8 10 10 10 11 11 11 11 10 10 10 10 10 10 10 10 9 9 9 9 9 9 9 8 8 8 8 8 8 8 8 7 8 7 7 7 7
7 7 6 7 6 7 7 6 7 8 8 8 8 9 10 10 10 10 10 10 10 10 10 10 10 10 10 9 9 9 9 9 9 8 8 8 8 8 8 7 7 7 7 7 7 7 7 7 7
7 7 7 7 7 6 6 6 7 8 8 8 9 9 10 10 10 10 10 10 10 10 10 10 10 10 10 9 9 9 9 8 8 8 8 8 7 7 7 7 7 7 7 7 6 6 6 6 6
7 6 6 6 6 6 6 6 7 8 8 8 8 9 9 10 10 10 10 10 10 10 10 10 10 10 9 9 9 9 8 8 8 8 7 7 7 7 7 7 6 6 6 6 6 6 6 6 6
7 6 5 6 7 7 7 7 7 9 8 7 7 8 9 9 9 10 10 10 10 10 10 9 9 9 9 9 9 8 8 8 7 7 7 7 7 6 6 6 6 6 6 6 5 5 5 5 5
6 6 6 5 5 6 7 8 8 7 7 7 6 8 9 9 9 9 9 9 9 9 9 9 9 9 8 8 8 8 8 7 7 7 7 6 6 6 6 6 6 5 5 5 5 5 5 5 5
6 6 5 6 6 5 5 7 8 7 6 6 7 8 9 9 9 9 9 9 9 9 9 9 9 8 8 8 8 7 7 7 7 7 6 6 6 6 6 5 5 5 5 5 5 4 4 4 4
Wind_Speed
12 7 3 4 5 4 3 4 3 2 2 1 1 2 5 4 3 3 1 2 5 6 8 11 11 10 10 11 11 11 11 10 10 11 11 11 11 10 10 10 10 10 10 10 10 10 10 10 10
6 4 5 5 4 2 5 4 4 4 2 0 2 1 2 1 0 1 1 2 5 6 8 9 11 11 10 11 11 11 11 10 10 10 10 10 10 10 10 9 9 9 9 10 10 10 10 10 10
4 5 4 4 4 6 4 3 5 3 1 1 1 1 1 2 1 2 2 4 5 5 7 9 11 11 11 10 11 11 10 10 10 10 9 10 10 10 9 9 9 9 9 9 10 10 10 10 10
4 5 5 3 4 5 4 3 2 2 2 2 2 1 1 1 1 2 3 4 5 4 6 9 10 10 10 10 10 10 10 10 10 9 9 9 9 9 9 9 9 10 10 10 10 10 10 10 10
4 4 3 1 4 4 4 3 1 1 2 1 1 1 2 3 1 3 4 5 5 4 6 8 10 10 10 10 10 10 10 10 10 9 9 9 9 9 9 9 9 9 9 9 9 10 10 10 10
4 4 3 4 5 4 4 2 1 0 1 1 1 1 3 1 2 3 3 4 4 4 5 7 10 10 9 9 10 10 9 9 9 9 9 9 9 9 9 9 9 9 9 9 9 9 10 10 11
4 4 3 4 3 4 3 2 2 2 2 4 3 2 3 2 1 2 3 3 3 4 4 4 7 8 9 8 9 10 9 9 9 9 9 9 9 9 9 8 8 9 9 9 9 9 10 11 11
4 4 2 3 4 5 3 1 3 4 4 2 3 4 4 4 1 2 3 3 3 2 3 4 6 6 7 7 8 10 9 9 8 9 9 10 9 9 8 8 8 9 9 9 9 10 11 11 12
3 3 3 5 5 5 2 1 2 1 2 2 2 3 4 3 3 3 3 2 2 2 2 3 4 5 6 6 7 9 9 9 8 8 9 9 9 8 8 8 8 9 9 10 10 10 12 12 12
3 3 5 4 4 4 3 3 3 1 2 3 3 2 0 4 4 6 5 6 5 4 3 3 4 5 5 5 5 6 7 7 8 8 9 9 9 8 8 8 9 9 10 10 10 10 11 11 10
2 4 4 4 4 3 3 4 3 4 6 7 6 5 3 5 5 7 7 7 6 5 4 3 4 5 5 5 5 5 6 7 7 8 8 9 9 8 8 8 8 8 9 9 9 10 10 10 9
1 4 4 4 3 2 4 3 3 7 9 7 6 6 6 8 9 9 8 6 5 5 4 4 4 4 5 5 5 5 5 5 5 7 8 8 6 6 6 6 6 7 7 7 8 8 8 9 9
2 4 4 5 6 5 4 5 6 8 8 5 3 5 8 9 9 7 6 5 4 5 5 5 4 5 6 5 4 4 4 5 6 7 7 8 6 5 5 5 6 6 6 6 6 6 6 7 7
3 4 6 6 5 3 5 7 4 9 4 3 4 6 8 8 7 5 4 5 5 6 5 4 5 5 6 4 3 4 5 5 6 6 7 8 8 6 5 4 4 5 5 5 6 6 5 5 5
2 4 6 4 3 3 2 7 7 7 3 4 5 6 6 6 5 6 6 6 5 5 5 5 5 5 5 5 5 5 5 5 5 5 6 7 8 7 6 4 3 3 5 6 6 6 6 4 4
2 2 4 5 2 2 2 9 7 4 3 5 5 5 5 5 5 5 4 4 4 4 5 5 5 5 5 5 5 5 5 5 5 6 6 6 8 8 7 5 3 4 5 5 4 3 3 3 3
3 3 5 6 3 1 3 8 8 3 3 6 6 5 5 5 4 4 4 4 4 4 5 5 5 6 6 5 5 6 5 5 4 5 5 6 7 7 6 5 4 5 5 4 3 3 3 3 3
4 4 5 6 4 2 5 10 10 5 5 6 6 6 5 6 6 5 4 4 4 3 4 5 5 6 6 5 4 4 4 3 4 3 4 5 6 7 6 4 4 5 4 3 3 3 3 3 2
4 5 8 8 5 4 8 11 11 7 5 6 6 5 6 6 4 3 4 4 3 3 4 4 5 6 6 4 4 4 3 2 2 2 3 4 5 6 6 4 3 3 3 3 3 3 4 3 2
5 6 6 7 4 3 7 11 9 6 5 6 6 6 6 4 2 2 3 3 4 5 5 5 5 5 5 4 3 3 3 3 2 3 3 3 4 4 5 5 3 3 3 4 3 3 2 2 2
5 6 5 6 6 3 5 8 6 5 4 4 4 4 4 5 5 4 4 4 5 6 6 6 6 6 5 5 4 4 4 3 2 3 2 2 4 4 4 5 4 3 3 3 3 3 3 2 1
5 5 5 4 4 4 2 5 7 5 5 5 5 4 5 5 4 4 4 4 4 5 5 5 6 6 6 6 6 6 5 4 4 3 3 3 3 4 4 4 5 4 3 3 2 2 2 3 2
5 3 3 3 2 3 2 2 9 4 5 7 6 6 6 5 5 5 5 5 4 4 4 4 5 5 6 6 7 6 5 3 3 4 4 3 3 3 3 4 4 4 3 3 3 3 3 2 2
3 3 2 3 2 2 3 2 7 4 6 6 5 5 5 4 4 4 3 3 3 2 3 4 5 5 6 6 6 7 7 6 6 5 4 3 2 2 2 3 4 4 3 3 3 3 3 2 2
3 4 4 5 3 5 2 3 8 7 6 6 7 6 5 4 4 4 3 3 4 4 4 4 5 5 5 6 6 6 6 7 6 5 5 4 3 2 2 2 3 3 3 4 3 3 2 3 3
0 3 3 2 4 6 3 5 8 6 6 5 5 5 4 3 4 4 5 5 5 5 5 5 6 5 6 6 6 5 5 5 4 5 4 4 3 2 2 3 2 3 3 3 3 2 2 2 2
2 2 3 3 2 4 6 7 9 5 5 4 4 4 3 4 3 4 4 4 5 6 7 7 7 6 6 6 6 5 5 5 5 4 4 3 3 2 3 3 3 2 3 3 3 2 2 2 2
2 5 4 2 1 5 7 5 5 7 7 6 5 5 5 3 3 3 3 3 4 5 5 6 6 6 5 6 6 5 5 5 5 5 5 4 4 3 4 3 3 3 3 3 3 2 2 2 2
2 2 3 3 2 2 5 7 5 6 6 6 6 5 4 3 3 3 2 2 2 3 4 5 5 5 5 6 5 5 5 5 5 5 5 4 4 4 4 4 4 3 3 3 3 3 3 3 2
4 4 5 2 3 3 3 8 5 4 6 5 6 5 4 3 3 2 2 2 2 3 4 5 5 5 6 6 6 5 5 5 5 5 4 4 4 4 4 4 4 3 3 3 4 4 3 4 3
Wind_Direction
342 350 42 51 58 54 233 247 241 267 251 282 249 177 174 180 188 221 341 135 130 142 154 152 146 143 142 138 133 130 128 124 122 120 117 114 110 107 104 99 94 91 88 84 81 79 78 75 73
340 5 50 61 104 192 258 246 237 237 225 71 25 70 115 215 323 115 115 157 135 139 143 147 145 145 140 141 138 133 132 127 123 121 120 117 114 109 105 102 97 93 89 86 83 81 79 78 76
359 41 79 86 139 189 222 233 232 278 280 79 48 22 163 221 205 187 201 154 128 133 142 148 144 145 142 140 141 136 133 131 126 123 120 119 115 110 107 104 99 95 90 87 87 84 82 78 75
51 45 56 94 204 217 221 260 255 332 345 19 105 353 301 322 209 207 146 132 126 132 141 147 145 143 141 141 141 141 136 134 131 127 122 119 116 112 107 104 99 95 91 88 88 84 82 76 74
55 76 79 224 239 248 245 265 205 218 269 323 96 199 270 334 22 115 128 135 139 144 143 148 150 146 140 141 144 141 141 135 135 131 125 120 114 111 104 102 100 97 93 90 87 84 83 78 76
57 74 123 225 251 271 264 245 182 287 275 288 144 198 252 348 77 128 131 138 142 145 142 154 155 151 144 142 148 145 141 139 137 132 124 118 114 108 106 102 103 99 95 92 89 85 84 82 81
109 114 178 209 246 265 254 224 186 218 252 236 195 185 268 256 214 137 127 129 126 128 127 130 143 152 150 144 150 148 143 138 137 134 126 117 112 109 104 104 104 103 97 93 90 88 87 86 84
124 120 172 218 227 247 252 246 215 198 240 238 169 184 240 235 211 116 111 118 121 114 125 123 124 133 137 140 148 149 144 137 134 135 129 118 109 107 102 101 105 103 98 95 92 90 88 86 85
95 102 211 217 213 245 252 265 274 225 188 262 243 230 248 166 149 137 129 128 137 146 144 138 131 129 134 136 139 144 140 135 128 130 129 119 108 103 95 95 103 102 99 97 94 90 88 84 81
102 177 226 220 211 237 260 239 228 259 277 262 274 302 209 151 174 184 187 186 186 190 180 164 154 147 137 136 126 124 127 125 123 123 125 118 109 103 98 94 97 101 97 95 91 89 86 81 76
156 204 238 255 251 250 258 260 219 184 244 233 235 237 206 191 203 209 206 202 199 195 186 177 170 153 141 135 131 124 121 119 119 121 121 119 108 100 93 87 83 86 88 84 83 80 78 79 77
228 249 238 257 263 251 245 252 250 219 233 249 233 200 196 204 209 213 210 213 204 193 196 183 171 165 154 146 141 137 131 125 120 124 127 123 110 98 93 85 83 78 82 82 81 79 79 79 78
247 271 269 264 274 262 259 253 254 254 262 273 231 194 205 210 218 222 217 210 207 201 196 190 173 176 158 146 148 140 137 138 135 131 131 132 123 118 107 93 87 81 83 88 86 83 81 76 75
271 281 286 281 271 262 255 266 250 264 261 250 217 210 215 213 212 212 210 211 210 208 200 192 179 176 158 151 146 147 140 141 134 131 138 138 132 126 117 102 91 81 85 93 98 95 88 79 77
305 311 310 279 261 260 265 281 243 258 243 240 235 228 224 220 213 216 210 209 209 207 195 191 178 163 156 151 150 145 145 141 138 135 140 139 136 134 126 116 103 92 99 97 93 92 85 80 72
342 348 306 292 268 246 177 267 267 248 211 237 243 238 229 229 223 224 214 206 203 197 188 187 176 160 159 154 148 141 139 135 138 138 140 143 139 137 129 122 115 109 103 96 93 97 87 75 72
19 320 280 295 272 246 208 261 275 257 228 248 249 243 234 228 232 228 213 198 196 193 180 173 161 158 158 145 137 132 131 128 130 137 140 143 140 139 128 124 120 116 101 89 101 84 100 93 76
285 287 282 276 291 274 252 265 285 283 240 248 256 254 240 230 232 224 204 190 186 185 174 165 158 150 140 127 120 114 111 113 123 127 139 144 143 140 126 117 121 118 110 98 99 93 81 95 95
251 256 276 274 283 277 263 272 280 277 258 261 260 252 247 243 239 204 190 175 165 163 163 166 160 154 149 144 145 139 142 137 127 133 137 136 142 141 132 127 117 117 122 123 120 110 88 70 72
251 269 283 293 303 272 279 278 273 256 245 243 246 248 241 244 235 201 180 176 182 182 177 173 170 163 165 161 143 129 126 127 124 121 122 137 138 141 137 137 136 122 120 116 113 115 112 79 70
260 240 261 286 322 324 314 304 284 274 256 263 255 246 238 228 226 207 198 198 191 189 187 189 180 168 162 143 118 103 93 88 99 108 114 136 146 141 137 139 138 132 124 131 129 126 132 129 60
270 243 248 284 327 313 2 302 293 283 287 266 257 248 245 242 235 206 199 205 209 203 189 184 174 164 159 150 150 147 151 157 169 144 136 125 140 144 142 144 143 138 129 133 137 123 130 135 136
247 282 264 266 241 305 326 260 290 307 285 274 260 246 244 239 228 216 206 207 209 199 182 181 165 159 156 158 164 155 147 145 128 119 125 124 112 125 137 143 138 135 135 138 133 125 125 137 151
275 352 22 44 66 297 258 208 286 272 251 270 269 257 245 236 229 226 215 189 186 174 172 172 162 159 155 157 159 158 155 147 138 137 142 139 125 111 124 135 138 141 140 144 145 138 134 139 143
35 52 15 359 358 266 271 228 257 267 260 254 264 267 255 225 218 222 214 200 191 182 179 178 169 165 160 158 161 165 163 158 161 159 159 155 148 151 163 150 149 149 152 152 145 139 144 150 157
256 126 141 239 268 291 316 257 262 273 280 273 268 266 261 239 226 227 226 214 204 194 182 179 178 173 167 166 167 162 160 160 164 161 158 162 167 171 154 155 154 154 148 147 140 133 147 151 168
134 157 169 154 272 280 282 290 303 302 314 314 309 302 279 258 240 236 230 213 204 196 189 185 182 175 173 173 164 160 161 162 164 158 154 156 160 157 147 149 149 149 148 151 144 144 162 158 177
153 148 105 123 315 295 298 293 281 306 311 320 323 312 297 289 270 256 247 218 203 196 184 174 178 180 175 171 170 168 167 167 162 155 162 165 163 153 148 153 159 156 152 154 153 156 162 160 182
138 134 132 144 176 214 298 286 240 265 291 297 296 294 290 280 272 255 240 221 198 179 169 172 174 171 170 173 169 160 165 163 157 163 171 169 162 160 162 167 166 166 166 166 164 174 169 178 197
185 182 158 173 245 201 237 273 280 280 299 301 301 303 302 293 284 264 226 190 182 182 180 180 179 179 179 172 165 166 162 158 161 169 172 167 166 168 169 168 168 174 176 174 178 190 189 193 208
Height
1508 1508 1510 1511 1515 1527 1527 1521 1518 1516 1514 1513 1512 1512 1513 1514 1517 1519 1514 1512 1514 1516 1518 1520 1522 1523 1525 1526 1527 1528 1530 1530 1531 1532 1532 1533 1534 1534 1534 1535 1535 1535 1535 1536 1536 1536 1536 1537 1537
1508 1509 1511 1512 1522 1531 1527 1519 1517 1514 1512 1512 1511 1511 1511 1511 1512 1512 1511 1512 1514 1516 1518 1520 1521 1523 1524 1526 1527 1528 1529 1530 1531 1532 1533 1533 1534 1534 1534 1535 1535 1535 1535 1536 1536 1536 1536 1537 1537
1508 1509 1511 1515 1524 1527 1521 1515 1514 1512 1512 1512 1511 1511 1511 1511 1511 1511 1511 1512 1514 1516 1518 1519 1521 1523 1524 1525 1527 1528 1529 1530 1531 1532 1532 1533 1533 1534 1534 1535 1535 1535 1535 1536 1536 1536 1537 1537 1537
1509 1510 1512 1519 1521 1520 1516 1513 1512 1512 1512 1511 1511 1511 1511 1511 1511 1511 1511 1512 1514 1516 1517 1519 1521 1522 1524 1525 1526 1527 1529 1530 1531 1531 1532 1533 1533 1534 1534 1535 1535 1536 1536 1536 1536 1537 1537 1537 1538
1509 1510 1517 1522 1519 1516 1513 1512 1512 1512 1512 1511 1511 1510 1510 1510 1510 1510 1511 1512 1514 1515 1517 1519 1520 1522 1523 1524 1526 1527 1528 1529 1530 1531 1532 1533 1533 1534 1534 1535 1535 1536 1536 1536 1537 1537 1537 1538 1538
1510 1511 1522 1524 1519 1515 1512 1511 1511 1511 1511 1511 1511 1510 1509 1509 1509 1510 1511 1512 1514 1515 1517 1518 1520 1521 1522 1523 1525 1526 1527 1528 1529 1531 1532 1532 1533 1534 1534 1535 1536 1536 1536 1537 1537 1537 1537 1538 1538
1511 1515 1520 1519 1519 1515 1511 1510 1510 1510 1510 1510 1510 1510 1508 1508 1509 1510 1511 1512 1513 1514 1516 1517 1519 1520 1521 1522 1524 1525 1527 1528 1529 1530 1531 1532 1533 1533 1534 1535 1536 1536 1537 1537 1537 1537 1538 1538 1539
1510 1515 1518 1519 1518 1514 1510 1509 1508 1509 1509 1509 1509 1508 1506 1507 1507 1508 1509 1511 1512 1513 1514 1516 1517 1519 1520 1521 1523 1524 1526 1527 1528 1530 1531 1532 1532 1533 1534 1535 1536 1536 1537 1537 1537 1538 1538 1539 1539
1510 1518 1519 1516 1515 1511 1508 1508 1507 1507 1507 1507 1507 1506 1505 1505 1505 1506 1507 1508 1509 1511 1513 1514 1515 1517 1519 1520 1521 1523 1525 1526 1528 1529 1530 1531 1532 1533 1534 1535 1535 1536 1537 1537 1538 1538 1538 1539 1539
1511 1517 1513 1510 1509 1508 1507 1507 1506 1506 1506 1505 1504 1504 1503 1503 1503 1503 1504 1505 1506 1508 1510 1512 1513 1515 1517 1519 1520 1521 1523 1525 1527 1528 1529 1530 1531 1532 1533 1534 1535 1536 1537 1537 1538 1538 1539 1539 1539
1510 1512 1510 1508 1507 1507 1506 1505 1504 1504 1504 1502 1501 1500 1500 1501 1501 1502 1502 1503 1504 1506 1508 1509 1512 1513 1515 1517 1519 1520 1522 1524 1525 1527 1528 1529 1530 1531 1533 1533 1534 1535 1536 1537 1537 1538 1538 1539 1539
1511 1509 1508 1506 1506 1505 1504 1503 1502 1500 1499 1498 1498 1498 1498 1498 1498 1499 1500 1501 1502 1504 1506 1507 1510 1511 1514 1515 1517 1518 1520 1522 1524 1525 1527 1528 1529 1530 1532 1533 1534 1535 1536 1536 1537 1538 1538 1539 1539
1509 1508 1506 1505 1504 1503 1502 1501 1500 1497 1496 1495 1495 1495 1495 1495 1496 1497 1499 1499 1501 1502 1503 1505 1507 1509 1511 1513 1515 1517 1519 1521 1522 1524 1526 1527 1528 1529 1531 1532 1533 1534 1535 1536 1537 1537 1538 1538 1539
1508 1507 1505 1503 1502 1501 1501 1499 1498 1493 1493 1493 1492 1492 1493 1493 1494 1495 1496 1497 1498 1499 1501 1503 1504 1507 1509 1511 1513 1516 1518 1519 1521 1523 1524 1526 1527 1528 1529 1531 1532 1533 1534 1535 1536 1537 1537 1538 1538
1508 1507 1504 1501 1500 1499 1500 1497 1493 1491 1491 1490 1490 1490 1490 1491 1491 1492 1493 1494 1495 1497 1498 1500 1502 1505 1507 1509 1512 1514 1516 1518 1519 1521 1523 1524 1526 1527 1529 1530 1531 1532 1533 1534 1535 1536 1537 1537 1538
1508 1509 1508 1501 1499 1498 1502 1498 1490 1489 1489 1488 1488 1488 1488 1488 1489 1490 1491 1492 1494 1495 1496 1498 1500 1502 1505 1507 1510 1512 1514 1516 1518 1519 1521 1523 1524 1526 1527 1529 1530 1531 1532 1533 1534 1535 1535 1536 1537
1512 1514 1510 1504 1499 1498 1499 1495 1488 1487 1487 1486 1486 1486 1486 1486 1487 1488 1489 1491 1492 1493 1494 1496 1498 1501 1503 1505 1508 1510 1513 1514 1517 1518 1520 1521 1523 1525 1526 1528 1529 1530 1531 1532 1533 1533 1534 1535 1535
1514 1514 1510 1506 1499 1498 1498 1493 1487 1486 1485 1484 1484 1484 1484 1483 1484 1486 1487 1488 1490 1491 1493 1494 1496 1498 1501 1503 1506 1508 1511 1513 1515 1516 1518 1520 1521 1523 1525 1526 1527 1528 1529 1530 1531 1532 1532 1533 1534
1512 1512 1510 1504 1499 1498 1495 1492 1486 1484 1483 1482 1481 1481 1481 1481 1483 1484 1485 1486 1488 1489 1490 1492 1493 1496 1499 1501 1503 1505 1508 1511 1513 1515 1516 1518 1520 1522 1523 1525 1526 1527 1527 1528 1529 1530 1531 1531 1532
1510 1509 1507 1502 1498 1497 1494 1489 1483 1481 1480 1479 1479 1479 1479 1480 1481 1482 1483 1484 1485 1486 1488 1490 1492 1494 1497 1499 1501 1504 1506 1508 1511 1513 1515 1516 1518 1519 1521 1523 1524 1525 1526 1526 1527 1528 1529 1529 1530
1508 1508 1506 1504 1500 1496 1495 1488 1482 1478 1477 1477 1477 1477 1477 1478 1478 1480 1481 1481 1483 1484 1485 1487 1490 1492 1495 1497 1499 1501 1503 1506 1508 1510 1513 1515 1516 1518 1519 1521 1522 1523 1524 1525 1525 1526 1527 1528 1528
1507 1503 1503 1503 1504 1504 1501 1500 1484 1479 1477 1475 1474 1474 1474 1475 1476 1477 1478 1479 1480 1482 1484 1486 1488 1490 1493 1495 1497 1499 1501 1504 1506 1508 1511 1513 1514 1516 1517 1519 1520 1521 1522 1523 1524 1524 1525 1526 1526
1504 1501 1502 1502 1503 1505 1503 1504 1490 1480 1477 1474 1472 1471 1472 1473 1473 1474 1476 1477 1479 1480 1482 1484 1486 1488 1490 1493 1495 1497 1500 1503 1505 1507 1509 1511 1513 1514 1515 1516 1517 1518 1520 1521 1522 1522 1523 1524 1524
1502 1502 1502 1505 1507 1506 1501 1504 1494 1482 1476 1472 1469 1469 1469 1470 1471 1472 1474 1475 1476 1478 1480 1482 1484 1486 1488 1491 1493 1495 1498 1501 1503 1504 1506 1508 1510 1512 1513 1514 1515 1516 1517 1518 1519 1520 1520 1521 1521
1504 1508 1513 1511 1514 1507 1501 1501 1491 1475 1471 1470 1468 1467 1467 1468 1469 1470 1471 1472 1474 1476 1478 1480 1482 1484 1487 1489 1492 1494 1496 1499 1500 1502 1504 1506 1507 1509 1510 1512 1513 1514 1515 1516 1516 1517 1517 1518 1519
1506 1508 1515 1515 1515 1509 1503 1499 1483 1472 1469 1467 1466 1466 1465 1466 1467 1468 1469 1471 1472 1474 1475 1477 1480 1483 1485 1488 1490 1492 1494 1496 1498 1500 1502 1504 1505 1506 1508 1509 1510 1511 1512 1513 1513 1513 1514 1515 1515
1505 1510 1510 1516 1516 1515 1504 1495 1481 1469 1468 1466 1465 1464 1464 1464 1465 1466 1467 1468 1470 1472 1473 1476 1478 1481 1483 1486 1488 1490 1492 1494 1496 1498 1499 1501 1502 1504 1505 1506 1507 1508 1509 1510 1510 1511 1512 1512 1512
1504 1507 1514 1514 1512 1510 1501 1496 1488 1472 1469 1467 1466 1464 1463 1463 1464 1464 1465 1466 1468 1470 1472 1474 1476 1479 1481 1483 1486 1488 1490 1491 1493 1495 1497 1498 1500 1501 1502 1503 1504 1505 1506 1507 1507 1508 1508 1509 1509
1506 1507 1509 1514 1514 1512 1508 1493 1477 1474 1470 1469 1466 1464 1463 1463 1463 1463 1464 1465 1466 1467 1469 1471 1473 1476 1478 1481 1483 1485 1487 1489 1491 1492 1494 1495 1497 1498 1499 1500 1501 1502 1503 1504 1504 1504 1504 1505 1505
1501 1503 1507 1510 1510 1514 1513 1496 1472 1472 1469 1467 1466 1464 1463 1462 1462 1463 1463 1464 1465 1466 1467 1469 1471 1474 1476 1478 1480 1482 1484 1486 1488 1489 1491 1492 1493 1494 1496 1497 1498 1499 1499 1500 1500 1500 1501 1501 1501